EN

Hourly Weather Doronub

Today, 1 October, Thursday

Time Temperature Precipitation Wind Pressure Humidity
00:00 +5°C° 0 mm 3 mps 602 mmHg 86%
01:00 +5°C° 0 mm 3 mps 602 mmHg 84%
02:00 +5°C° 0 mm 3 mps 602 mmHg 81%
03:00 +6°C° 0 mm 2 mps 602 mmHg 79%
04:00 +6°C° 0 mm 2 mps 603 mmHg 77%
05:00 +6°C° 0 mm 2 mps 603 mmHg 75%
06:00 +6°C° 0 mm 2 mps 603 mmHg 74%
07:00 +8°C° 0 mm 2 mps 604 mmHg 69%
08:00 +10°C° 0 mm 2 mps 604 mmHg 65%
09:00 +13°C° 0 mm 2 mps 605 mmHg 60%
10:00 +14°C° 0 mm 2 mps 606 mmHg 60%
11:00 +14°C° 0 mm 2 mps 606 mmHg 59%
12:00 +15°C° 0 mm 2 mps 606 mmHg 59%
13:00 +15°C° 0 mm 2 mps 606 mmHg 61%
14:00 +15°C° 0 mm 2 mps 606 mmHg 62%
15:00 +15°C° 0 mm 2 mps 605 mmHg 64%
16:00 +13°C° 0 mm 2 mps 605 mmHg 70%
17:00 +11°C° 0 mm 3 mps 604 mmHg 76%
18:00 +9°C° 0 mm 3 mps 603 mmHg 83%
19:00 +9°C° 0 mm 3 mps 604 mmHg 81%
20:00 +9°C° 0 mm 3 mps 604 mmHg 80%
21:00 +8°C° 0 mm 3 mps 604 mmHg 79%
22:00 +8°C° 0 mm 3 mps 604 mmHg 80%
23:00 +7°C° 0 mm 4 mps 604 mmHg 82%

Tomorrow, 2 October, Friday

Time Temperature Precipitation Wind Pressure Humidity
00:00 +7°C° 0 mm 4 mps 603 mmHg 83%
01:00 +7°C° 0 mm 4 mps 603 mmHg 82%
02:00 +8°C° 0 mm 3 mps 603 mmHg 82%
03:00 +8°C° 0 mm 3 mps 603 mmHg 81%
04:00 +8°C° 0 mm 3 mps 603 mmHg 78%
05:00 +8°C° 0 mm 3 mps 603 mmHg 75%
06:00 +9°C° 0 mm 3 mps 604 mmHg 72%
07:00 +10°C° 0 mm 3 mps 605 mmHg 67%
08:00 +13°C° 0 mm 2 mps 605 mmHg 61%
09:00 +15°C° 0 mm 2 mps 606 mmHg 56%
10:00 +16°C° 0 mm 2 mps 606 mmHg 54%
11:00 +16°C° 0 mm 3 mps 607 mmHg 53%
12:00 +17°C° 0 mm 3 mps 607 mmHg 51%
13:00 +17°C° 0 mm 3 mps 606 mmHg 51%
14:00 +17°C° 0 mm 3 mps 606 mmHg 52%
15:00 +16°C° 0 mm 3 mps 606 mmHg 52%
16:00 +14°C° 0 mm 3 mps 605 mmHg 62%
17:00 +12°C° 0 mm 3 mps 605 mmHg 71%
18:00 +10°C° 0 mm 3 mps 604 mmHg 80%
19:00 +10°C° 0 mm 3 mps 604 mmHg 82%
20:00 +9°C° 0 mm 3 mps 604 mmHg 84%
21:00 +9°C° 0 mm 3 mps 605 mmHg 86%
22:00 +9°C° 0 mm 3 mps 605 mmHg 88%
23:00 +9°C° 0 mm 2 mps 604 mmHg 89%

Day after tomorrow, 3 October, Saturday

Time Temperature Precipitation Wind Pressure Humidity
00:00 +9°C° 0 mm 2 mps 604 mmHg 90%
01:00 +9°C° 0 mm 1 mps 604 mmHg 91%
02:00 +9°C° 0 mm 1 mps 604 mmHg 92%
03:00 +9°C° 0 mm 1 mps 604 mmHg 93%
04:00 +9°C° 0 mm 1 mps 604 mmHg 92%
05:00 +8°C° 0 mm 1 mps 604 mmHg 92%
06:00 +7°C° 0 mm 0 mps 605 mmHg 92%
07:00 +10°C° 0 mm 1 mps 605 mmHg 86%
08:00 +11°C° 0 mm 1 mps 606 mmHg 81%
09:00 +12°C° 0 mm 1 mps 607 mmHg 75%
10:00 +13°C° 0.3 mm 1 mps 607 mmHg 74%
11:00 +13°C° 0.3 mm 2 mps 607 mmHg 73%
12:00 +14°C° 0.3 mm 2 mps 607 mmHg 71%
13:00 +14°C° 0.8 mm 2 mps 607 mmHg 73%
14:00 +13°C° 0.8 mm 2 mps 607 mmHg 74%
15:00 +13°C° 0.8 mm 1 mps 607 mmHg 75%
16:00 +12°C° 0.3 mm 1 mps 607 mmHg 81%
17:00 +11°C° 0.3 mm 1 mps 606 mmHg 86%
18:00 +11°C° 0.3 mm 1 mps 606 mmHg 92%
19:00 +10°C° 0.1 mm 1 mps 607 mmHg 92%
20:00 +9°C° 0.1 mm 0 mps 607 mmHg 92%
21:00 +9°C° 0.1 mm 0 mps 607 mmHg 93%
22:00 +10°C° 0.1 mm 1 mps 607 mmHg 92%
23:00 +10°C° 0.1 mm 1 mps 607 mmHg 91%

4 October, Sunday

Time Temperature Precipitation Wind Pressure Humidity
00:00 +9°C° 0.1 mm 1 mps 606 mmHg 91%
01:00 +9°C° 0 mm 1 mps 606 mmHg 90%
02:00 +8°C° 0 mm 1 mps 606 mmHg 90%
03:00 +8°C° 0 mm 1 mps 605 mmHg 89%
04:00 +8°C° 0 mm 1 mps 606 mmHg 87%
05:00 +8°C° 0 mm 1 mps 606 mmHg 86%
06:00 +7°C° 0 mm 1 mps 606 mmHg 84%
07:00 +9°C° 0 mm 1 mps 606 mmHg 76%
08:00 +11°C° 0 mm 1 mps 607 mmHg 68%
09:00 +13°C° 0 mm 1 mps 608 mmHg 60%
10:00 +13°C° 0 mm 1 mps 608 mmHg 59%
11:00 +14°C° 0 mm 2 mps 608 mmHg 57%
12:00 +15°C° 0 mm 2 mps 608 mmHg 55%
13:00 +15°C° 0.2 mm 2 mps 608 mmHg 58%
14:00 +15°C° 0.2 mm 2 mps 608 mmHg 60%
15:00 +14°C° 0.2 mm 2 mps 608 mmHg 62%
16:00 +13°C° 0.1 mm 1 mps 607 mmHg 72%
17:00 +11°C° 0.1 mm 1 mps 607 mmHg 81%
18:00 +9°C° 0.1 mm 0 mps 606 mmHg 90%
19:00 +8°C° 0 mm 0 mps 606 mmHg 90%
20:00 +8°C° 0 mm 0 mps 606 mmHg 89%
21:00 +8°C° 0 mm 0 mps 606 mmHg 89%
22:00 +8°C° 0 mm 1 mps 606 mmHg 87%
23:00 +8°C° 0 mm 1 mps 606 mmHg 85%

5 October, Monday

Time Temperature Precipitation Wind Pressure Humidity
00:00 +8°C° 0 mm 1 mps 605 mmHg 83%
01:00 +8°C° 0 mm 1 mps 605 mmHg 81%
02:00 +7°C° 0 mm 1 mps 605 mmHg 78%
03:00 +7°C° 0 mm 1 mps 605 mmHg 76%
04:00 +7°C° 0 mm 1 mps 605 mmHg 71%
05:00 +7°C° 0 mm 1 mps 605 mmHg 67%
06:00 +7°C° 0 mm 1 mps 605 mmHg 62%
07:00 +9°C° 0 mm 1 mps 606 mmHg 57%
08:00 +11°C° 0 mm 1 mps 607 mmHg 52%
09:00 +13°C° 0 mm 1 mps 608 mmHg 46%
10:00 +14°C° 0 mm 1 mps 608 mmHg 46%
11:00 +15°C° 0 mm 2 mps 608 mmHg 47%
12:00 +16°C° 0 mm 2 mps 608 mmHg 47%
13:00 +16°C° 0 mm 2 mps 608 mmHg 52%
14:00 +15°C° 0 mm 2 mps 608 mmHg 57%
15:00 +15°C° 0 mm 2 mps 607 mmHg 61%
16:00 +14°C° 0 mm 2 mps 607 mmHg 72%
17:00 +12°C° 0 mm 1 mps 606 mmHg 83%
18:00 +10°C° 0 mm 1 mps 605 mmHg 94%
19:00 +10°C° 0 mm 1 mps 606 mmHg 94%
20:00 +9°C° 0 mm 0 mps 606 mmHg 93%
21:00 +9°C° 0 mm 0 mps 606 mmHg 93%
22:00 +9°C° 0 mm 0 mps 606 mmHg 93%
23:00 +10°C° 0 mm 1 mps 606 mmHg 93%

6 October, Tuesday

Time Temperature Precipitation Wind Pressure Humidity
00:00 +10°C° 0 mm 1 mps 606 mmHg 92%
01:00 +9°C° 0 mm 1 mps 606 mmHg 93%
02:00 +9°C° 0 mm 1 mps 606 mmHg 94%
03:00 +7°C° 0 mm 0 mps 605 mmHg 95%
04:00 +7°C° 0 mm 0 mps 606 mmHg 95%
05:00 +8°C° 0 mm 0 mps 606 mmHg 94%
06:00 +8°C° 0 mm 0 mps 606 mmHg 93%
07:00 +9°C° 0 mm 0 mps 606 mmHg 88%
08:00 +11°C° 0 mm 1 mps 607 mmHg 82%
09:00 +12°C° 0 mm 1 mps 608 mmHg 76%
10:00 +13°C° 0 mm 1 mps 608 mmHg 76%
11:00 +13°C° 0 mm 1 mps 608 mmHg 75%
12:00 +14°C° 0 mm 2 mps 608 mmHg 75%
13:00 +13°C° 0.1 mm 2 mps 608 mmHg 78%
14:00 +13°C° 0.1 mm 2 mps 608 mmHg 82%
15:00 +12°C° 0.1 mm 1 mps 607 mmHg 85%
16:00 +12°C° 0 mm 1 mps 607 mmHg 87%
17:00 +11°C° 0 mm 1 mps 607 mmHg 89%
18:00 +11°C° 0 mm 1 mps 607 mmHg 91%
19:00 +10°C° 0 mm 1 mps 607 mmHg 90%
20:00 +8°C° 0 mm 2 mps 607 mmHg 90%
21:00 +8°C° 0 mm 2 mps 606 mmHg 90%
22:00 +8°C° 0 mm 2 mps 606 mmHg 89%
23:00 +8°C° 0 mm 2 mps 606 mmHg 88%
Show more

We Need Your Consent

Meteoprog and our Service Providers may store and access personal data such as cookies, device identifiers or other similar technologies on your device and process such data to personalise content and ads, as well as provide social media features and to analyse the traffic.

  • Store and/or access information on your device

    Cookies, device identifiers or other information can be stored or accessed on your device for the purposes indicated above.

  • Personalised ads and content, ad and content measurement, audience insights, and products development

    Ads and content can be personalised based on a profile. More data can be added to better personalise ads and content. Ad and content performance can be measured. Insights about the audience who saw the ads and content can be derived. Such data can be used to develop or improve user’s experience, systems and software.

By clicking ‘I Agree’ you will allow the use of indicated cookies, device identifiers, web beacons or other similar technologies. Your settings can be changed in the browser on your device.

For certain purposes, legitimate interests may be relied on, rather than consent. You can read more about this in our Privacy and Cookie Policy.